DL1ONI-13 Weather Reports


time (UTC)temp
F
wind
direction
speed
knots
gust
knots
rain 1hr
in
rain 24hr
in
rain mn
in
humidity
%
barometer
mb
20260507064022 57 279 5.2 7.8 0.00 0.00 0.00 55 1016.1
20260507063023 57 214 4.3 7.0 0.00 0.00 0.00 54 1016.2
20260507062023 57 257 5.2 6.1 0.00 0.00 0.00 54 1016.1
20260507061023 57 226 4.3 7.8 0.00 0.00 0.00 54 1015.7
20260507060023 57 262 4.3 7.0 0.00 0.00 0.00 55 1015.7
20260507055024 56 260 5.2 6.1 0.00 0.00 0.00 55 1015.7
20260507054043 57 248 5.2 7.8 0.00 0.00 0.00 54 1015.9
20260507053042 58 226 5.2 11.3 0.00 0.00 0.00 52 1015.5
20260507052023 62 249 3.5 10.4 0.00 0.00 0.00 50 1015.7
20260507051023 65 220 2.6 9.6 0.00 0.00 0.00 50 1015.6
20260507050024 61 177 1.7 4.3 0.00 0.00 0.00 56 1015.4
20260507045023 52 207 2.6 2.6 0.00 0.00 0.00 67 1015.1
20260507044044 50 243 1.7 6.1 0.00 0.00 0.00 68 1015.0
20260507043024 49 205 1.7 4.3 0.00 0.00 0.00 69 1014.0
20260507042025 49 204 2.6 4.3 0.00 0.00 0.00 69 1014.0
20260507041024 49 249 2.6 4.3 0.00 0.00 0.00 70 1014.6
20260507040025 49 205 1.7 5.2 0.00 0.00 0.00 70 1014.6
20260507035025 48 199 1.7 1.7 0.00 0.00 0.00 71 1014.8
20260507034025 48 199 1.7 3.5 0.00 0.00 0.00 71 1014.8
20260507033045 47 239 1.7 2.6 0.00 0.00 0.00 71 1015.4
20260507032015 47 249 1.7 1.7 0.00 0.00 0.00 71 1015.4
20260507031025 47 247 0.9 2.6 0.00 0.00 0.00 70 1015.6
20260507030025 47 237 0.9 1.7 0.00 0.00 0.00 70 1015.6
20260507025015 47 256 0.9 1.7 0.00 0.00 0.00 70 1015.5
20260507024016 48 197 0.9 1.7 0.00 0.00 0.00 70 1015.6
20260507023017 48 225 0.9 2.6 0.00 0.00 0.00 69 1015.3
20260507022036 48 165 1.7 1.7 0.00 0.00 0.00 70 1015.3
20260507021037 49 225 1.7 2.6 0.00 0.00 0.00 69 1015.6
20260507020017 49 255 1.7 3.5 0.00 0.00 0.00 70 1015.6
20260507015018 49 240 1.7 1.7 0.00 0.00 0.00 69 1015.7
20260507014018 49 215 1.7 4.3 0.00 0.00 0.00 69 1015.5
20260507013039 50 210 1.7 3.5 0.00 0.00 0.00 69 1015.3
20260507012019 50 230 1.7 3.5 0.00 0.00 0.00 68 1015.3
20260507011019 50 238 1.7 4.3 0.00 0.00 0.00 68 1015.4
20260507010019 50 234 0.9 1.7 0.00 0.00 0.00 67 1015.4
20260507005020 50 243 1.7 1.7 0.00 0.00 0.00 67 1015.2
20260507004020 51 250 1.7 1.7 0.00 0.00 0.00 67 1015.3
20260507003020 51 229 2.6 3.5 0.00 0.00 0.00 67 1015.3
20260507002020 51 238 2.6 5.2 0.00 0.00 0.00 67 1015.3
20260507001020 52 265 2.6 6.1 0.00 0.00 0.00 67 1015.5
20260507000020 52 243 2.6 4.3 0.00 0.00 0.00 67 1015.5
20260506235100 52 190 2.6 6.1 0.00 0.00 0.00 67 1015.3
20260506234021 52 204 2.6 4.3 0.00 0.00 0.00 66 1015.3
20260506233042 53 211 1.7 3.5 0.00 0.00 0.00 65 1015.3
20260506232021 53 205 1.7 4.3 0.00 0.00 0.00 66 1015.3
20260506231022 53 204 2.6 5.2 0.00 0.00 0.00 66 1015.3
20260506230022 53 230 2.6 4.3 0.00 0.00 0.00 65 1015.3
20260506225021 54 207 2.6 5.2 0.00 0.00 0.00 65 1015.4
20260506224020 54 215 2.6 4.3 0.00 0.00 0.00 65 1015.3
20260506223021 54 221 3.5 7.0 0.00 0.00 0.00 65 1015.0
20260506222023 54 265 3.5 7.0 0.00 0.00 0.00 65 1015.0
20260506221024 54 209 2.6 4.3 0.00 0.00 0.00 66 1015.2
20260506215023 54 206 2.6 6.1 0.00 0.00 0.00 66 1015.1
20260506214024 54 262 3.5 3.5 0.00 0.00 0.00 66 1015.1
20260506213024 55 252 3.5 6.1 0.00 0.00 0.00 66 1014.8
20260506212023 55 262 3.5 4.3 0.00 0.00 0.00 66 1014.8
20260506211045 55 262 4.3 7.8 0.00 0.00 0.00 67 1014.6
20260506210025 55 242 4.3 10.4 0.00 0.00 0.00 67 1014.6
20260506205015 55 308 5.2 7.8 0.00 0.00 0.00 68 1014.6
20260506204026 55 215 4.3 9.6 0.00 0.00 0.00 69 1014.6
20260506203015 56 236 4.3 7.8 0.00 0.00 0.00 71 1013.8
20260506202025 56 221 3.5 8.7 0.00 0.00 0.00 71 1013.8
20260506201015 56 249 3.5 7.0 0.00 0.00 0.00 71 1012.8
20260506200026 56 256 4.3 7.0 0.00 0.00 0.00 72 1012.8
20260506195016 56 244 4.3 6.1 0.00 0.00 0.00 73 1012.5
20260506194037 56 231 4.3 9.6 0.00 0.00 0.00 73 1012.5
20260506193019 56 217 3.5 6.1 0.00 0.00 0.00 73 1012.5
20260506192018 56 212 2.6 5.2 0.00 0.00 0.00 71 1012.5
20260506191019 56 211 1.7 5.2 0.00 0.00 0.00 69 1011.9
20260506190019 56 242 1.7 4.3 0.00 0.00 0.00 68 1011.9
20260506185019 56 232 2.6 5.2 0.00 0.00 0.00 67 1011.2
20260506184020 56 221 3.5 5.2 0.00 0.00 0.00 66 1011.2
20260506183020 57 248 3.5 4.3 0.00 0.00 0.00 64 1011.1
20260506182020 57 260 3.5 5.2 0.00 0.00 0.00 65 1011.1
20260506181041 58 220 1.7 2.6 0.00 0.00 0.00 63 1010.7
20260506180021 59 241 4.3 6.1 0.00 0.00 0.00 62 1010.7
20260506175021 60 262 7.8 12.2 0.00 0.00 0.00 56 1010.5
20260506174021 63 257 7.8 16.5 0.00 0.00 0.00 48 1010.6
20260506173021 65 235 5.2 12.2 0.00 0.00 0.00 53 1009.4
20260506172021 65 173 4.3 6.1 0.00 0.00 0.00 53 1009.4
20260506171021 66 189 5.2 7.0 0.00 0.00 0.00 50 1009.0
20260506170022 68 167 4.3 5.2 0.00 0.00 0.00 47 1009.1
20260506165042 70 176 3.5 5.2 0.00 0.00 0.00 46 1009.5
20260506164023 71 135 1.7 3.5 0.00 0.00 0.00 47 1009.5
20260506163021 70 113 1.7 2.6 0.00 0.00 0.00 47 1009.3
20260506162021 70 137 2.6 5.2 0.00 0.00 0.00 46 1009.3
20260506161043 70 165 2.6 3.5 0.00 0.00 0.00 46 1009.1
20260506160022 70 141 2.6 3.5 0.00 0.00 0.00 46 1009.2
20260506155022 70 148 1.7 4.3 0.00 0.00 0.00 47 1008.5
20260506154022 69 93 0.9 1.7 0.00 0.00 0.00 47 1008.5
20260506153022 70 140 1.7 2.6 0.00 0.00 0.00 46 1009.0
20260506152022 70 135 0.9 2.6 0.00 0.00 0.00 46 1009.0
20260506151021 71 120 0.9 0.9 0.00 0.00 0.00 45 1009.4
20260506150021 71 205 0.9 2.6 0.00 0.00 0.00 42 1009.3
20260506145020 72 184 0.9 1.7 0.00 0.03 0.00 41 1009.0
20260506144040 72 180 0.9 2.6 0.00 0.03 0.00 41 1009.0
20260506143021 73 50 0.0 0.9 0.00 0.06 0.00 40 1009.1
20260506142021 74 149 0.9 0.9 0.00 0.06 0.00 41 1009.1
20260506141022 74 70 0.9 1.7 0.00 0.06 0.00 40 1010.3
20260506140021 74 140 1.7 2.6 0.00 0.06 0.00 40 1010.3
20260506135102 74 43 0.9 1.7 0.00 0.06 0.00 40 1010.7
20260506134022 75 129 0.9 1.7 0.00 0.06 0.00 40 1010.8
20260506133022 74 155 0.9 2.6 0.00 0.06 0.00 41 1011.0
20260506132023 74 69 1.7 3.5 0.00 0.06 0.00 41 1011.0
20260506131024 71 82 2.6 3.5 0.00 0.06 0.00 40 1011.0
20260506130024 74 17 0.9 6.1 0.00 0.06 0.00 41 1011.1
20260506125045 73 6 1.7 2.6 0.00 0.06 0.00 41 1011.4
20260506124045 73 314 1.7 2.6 0.00 0.06 0.00 42 1011.4
20260506123025 73 42 2.6 5.2 0.00 0.06 0.00 42 1011.7
20260506122016 72 108 2.6 3.5 0.00 0.06 0.00 44 1011.6
20260506121016 73 71 0.9 3.5 0.00 0.06 0.00 45 1011.8
20260506120017 71 145 1.7 1.7 0.00 0.06 0.00 45 1011.7
20260506115016 71 57 1.7 4.3 0.00 0.06 0.00 45 1011.6
20260506114057 70 114 1.7 3.5 0.00 0.06 0.00 45 1011.6
20260506113018 70 115 1.7 5.2 0.00 0.06 0.00 46 1012.0
20260506112019 70 67 1.7 2.6 0.00 0.06 0.00 46 1012.0
20260506111018 70 37 1.7 4.3 0.00 0.06 0.00 46 1012.4
20260506110019 70 15 1.7 5.2 0.00 0.06 0.00 45 1012.5
20260506105040 70 35 0.9 3.5 0.00 0.06 0.00 45 1012.0
20260506104020 70 73 0.9 1.7 0.00 0.06 0.00 47 1012.0
20260506103041 69 82 0.9 2.6 0.00 0.06 0.00 48 1012.9
20260506102042 69 60 0.9 2.6 0.00 0.06 0.00 47 1012.9
20260506101023 69 42 1.7 1.7 0.00 0.06 0.00 47 1012.7
20260506100023 69 45 0.9 2.6 0.00 0.06 0.00 47 1012.7
20260506095024 69 338 0.9 3.5 0.00 0.06 0.00 47 1012.2
20260506094024 68 320 0.9 0.9 0.00 0.06 0.00 49 1012.1
20260506093024 68 46 1.7 2.6 0.00 0.06 0.00 49 1012.8
20260506092044 68 81 0.9 1.7 0.00 0.06 0.00 50 1012.8
20260506091024 68 200 0.9 1.7 0.00 0.06 0.00 49 1012.9
20260506090025 67 128 0.9 1.7 0.00 0.06 0.00 51 1012.8
20260506085025 66 144 0.0 1.7 0.00 0.06 0.00 51 1012.8
20260506084025 65 33 0.9 1.7 0.00 0.06 0.00 52 1012.7
20260506083025 65 66 0.9 0.9 0.00 0.06 0.00 54 1012.7
20260506082025 65 187 0.9 2.6 0.00 0.06 0.00 56 1012.7
20260506081024 65 71 0.9 1.7 0.00 0.06 0.00 58 1012.7
20260506073024 62 223 0.9 2.6 0.00 0.06 0.00 59 1012.6
20260506072024 62 243 0.9 1.7 0.00 0.06 0.00 60 1012.6
20260506071025 61 160 0.9 0.9 0.00 0.06 0.00 60 1013.0